Waarnemingen

Advertentie
Mijn weer
Angelholm, Zweden (2607): temperatuur & dauwpunt: 18.08.2019 00:00:00 - 24.08.2019 00:00:00 (CEST)Angelholm, Zweden (2607): windsnelheid: 18.08.2019 00:00:00 - 24.08.2019 00:00:00 (CEST)Angelholm, Zweden (2607): windrichting: 18.08.2019 00:00:00 - 24.08.2019 00:00:00 (CEST)Angelholm, Zweden (2607): luchtdruk: 18.08.2019 00:00:00 - 24.08.2019 00:00:00 (CEST)Angelholm, Zweden (2607): zicht: 18.08.2019 00:00:00 - 24.08.2019 00:00:00 (CEST)
Datum & Tijd tt [°C] td [°C] ff [km/u] ff [kn] dd ppp [hPa] vv [km]
24.08.2019 00:00:00 14,5 13,8 4 2 Z 1025,2 10
23.08.2019 23:00:00 15,4 14,4 0 0 N 1025,0 10
23.08.2019 22:00:00 18,4 15,6 5 3 W 1024,9 10
23.08.2019 21:00:00 19,2 16,1 11 6 W 1024,8 10
23.08.2019 20:00:00 19,4 15,9 15 8 W 1024,3 10
23.08.2019 19:00:00 20,5 15,5 21 11 W 1024,3 10
23.08.2019 18:00:00 20,8 15,3 22 12 W 1024,3 10
23.08.2019 17:00:00 20,9 15,0 21 11 W 1024,4 10
23.08.2019 16:00:00 21,0 14,6 24 13 W 1024,4 10
23.08.2019 15:00:00 21,4 14,5 28 15 W 1024,3 10
23.08.2019 14:00:00 22,4 14,3 26 14 W 1024,3 10
23.08.2019 13:00:00 21,2 13,9 22 12 WZW 1024,2 10
23.08.2019 12:00:00 20,8 13,7 18 10 WZW 1024,4 10
23.08.2019 11:00:00 19,8 13,7 13 7 ZW 1024,3 10
23.08.2019 10:00:00 18,1 12,5 11 6 ZW 1024,4 40
23.08.2019 09:00:00 17,8 12,5 15 8 ZW 1024,2 10
23.08.2019 08:00:00 17,1 12,2 13 7 ZZW 1023,9 10
23.08.2019 07:00:00 16,1 11,5 9 5 Z 1023,6 10
23.08.2019 06:00:00 16,0 11,6 11 6 ZW 1023,4 10
23.08.2019 05:00:00 15,6 12,5 11 6 ZW 1023,5 10
23.08.2019 04:00:00 15,6 13,1 8 4 Z 1023,7 10
23.08.2019 03:00:00 15,6 13,1 8 4 Z 1023,9 10
23.08.2019 02:00:00 15,5 13,9 11 6 ZZO 1023,8 10
23.08.2019 01:00:00 15,8 13,8 11 6 ZZO 1023,9 10
23.08.2019 00:00:00 15,7 12,6 11 6 Z 1023,8 10
22.08.2019 23:00:00 16,2 12,0 11 6 Z 1024,0 10
22.08.2019 22:00:00 17,6 11,8 15 8 Z 1023,9 10
22.08.2019 21:00:00 18,4 11,5 21 11 ZZW 1023,8 10
22.08.2019 20:00:00 19,3 10,3 18 10 ZZW 1023,4 10
22.08.2019 19:00:00 20,1 9,6 22 12 ZZW 1023,5 10
22.08.2019 18:00:00 20,8 9,4 26 14 ZZW 1023,8 10
22.08.2019 17:00:00 20,5 10,3 22 12 ZZW 1024,2 10
22.08.2019 16:00:00 20,9 9,5 28 15 ZZW 1024,5 10
22.08.2019 15:00:00 21,2 10,7 26 14 ZZW 1025,3 10
22.08.2019 14:00:00 20,4 10,8 28 15 ZZW 1025,8 10
22.08.2019 13:00:00 20,4 11,6 26 14 ZZW 1026,4 10
22.08.2019 12:00:00 19,9 10,9 21 11 ZW 1026,7 10
22.08.2019 11:00:00 19,2 11,2 16 9 ZW 1027,0 10
22.08.2019 10:00:00 17,7 13,4 13 7 ZZW 1027,2 10
22.08.2019 09:00:00 16,2 13,3 9 5 ZZW 1027,3 10
22.08.2019 08:00:00 12,3 11,4 8 4 ZO 1027,4 10
22.08.2019 07:00:00 9,6 9,1 5 3 ZO 1027,1 10
22.08.2019 06:00:00 8,0 7,6 5 3 ZZO 1027,4 5
22.08.2019 05:00:00 8,6 7,8 4 2 ZZO 1027,3 10
22.08.2019 04:00:00 9,0 8,2 4 2 OZO 1027,4 2,9
22.08.2019 03:00:00 9,4 8,6 0 0 N 1027,5 9
22.08.2019 02:00:00 8,9 8,1 0 0 N 1027,4 10
22.08.2019 01:00:00 8,5 7,4 4 2 ZO 1027,4 10
22.08.2019 00:00:00 9,0 7,9 4 2 ZO 1027,2 10
21.08.2019 23:00:00 10,1 8,9 5 3 - 1027,2 10
21.08.2019 22:00:00 11,3 9,6 0 0 N 1026,8 10
21.08.2019 21:00:00 14,7 10,1 9 5 WNW 1026,4 10
21.08.2019 20:00:00 16,4 10,7 16 9 W 1026,1 10
21.08.2019 19:00:00 17,0 10,1 13 7 W 1026,2 10
21.08.2019 18:00:00 16,9 9,8 18 10 WNW 1026,2 10
21.08.2019 17:00:00 17,1 10,0 18 10 NW 1026,1 10
21.08.2019 16:00:00 17,9 10,3 24 13 WNW 1025,7 10
21.08.2019 15:00:00 17,1 10,2 22 12 WNW 1025,5 10
21.08.2019 14:00:00 17,1 10,0 24 13 WNW 1025,3 10
21.08.2019 13:00:00 17,3 10,4 22 12 WNW 1025,2 10
21.08.2019 12:00:00 17,1 10,7 24 13 NW 1024,9 10
21.08.2019 11:00:00 15,9 12,3 16 9 WNW 1024,6 10
21.08.2019 10:00:00 14,8 12,5 18 10 W 1024,4 10
21.08.2019 09:00:00 15,9 13,0 15 8 W 1023,9 10
21.08.2019 08:00:00 14,2 12,9 9 5 Z 1023,8 10
21.08.2019 07:00:00 10,4 9,9 8 4 Z 1023,4 9
21.08.2019 06:00:00 8,5 8,1 8 4 ZZO 1023,2 7
21.08.2019 05:00:00 9,5 9,0 8 4 ZZO 1023,0 8
21.08.2019 04:00:00 9,1 8,3 9 5 ZZO 1022,8 10
21.08.2019 03:00:00 9,1 8,3 8 4 ZO 1022,6 10
21.08.2019 02:00:00 10,0 8,9 9 5 WZW 1022,4 10
21.08.2019 01:00:00 10,7 9,9 5 3 ZO 1022,3 10
21.08.2019 00:00:00 13,2 11,3 8 4 ZZW 1022,0 10
20.08.2019 23:00:00 13,8 11,1 8 4 ZW 1021,9 10
20.08.2019 22:00:00 14,9 11,7 8 4 ZW 1021,7 10
20.08.2019 21:00:00 15,4 12,0 8 4 ZW 1021,2 10
20.08.2019 20:00:00 17,8 12,5 9 5 ZW 1020,6 10
20.08.2019 19:00:00 18,0 12,9 13 7 WZW 1020,3 10
20.08.2019 18:00:00 18,3 12,1 15 8 WZW 1020,2 10
20.08.2019 17:00:00 18,2 12,9 13 7 W 1019,7 10
20.08.2019 16:00:00 18,9 14,6 8 4 WZW 1019,5 10
20.08.2019 15:00:00 16,6 14,1 11 6 W 1019,3 6
20.08.2019 14:00:00 18,6 13,0 15 8 WNW 1018,9 10
20.08.2019 13:00:00 19,8 12,1 16 9 WZW 1018,5 10
20.08.2019 12:00:00 17,7 12,6 18 10 WZW 1018,6 10
20.08.2019 11:00:00 18,2 13,1 18 10 ZW 1018,4 10
20.08.2019 10:00:00 17,6 12,7 21 11 ZW 1018,1 10
20.08.2019 09:00:00 16,6 13,3 11 6 ZW 1018,0 10
20.08.2019 08:00:00 15,1 13,6 9 5 ZZO 1017,6 10
20.08.2019 07:00:00 13,7 12,8 11 6 ZZO 1017,2 10
20.08.2019 06:00:00 11,4 10,6 9 5 Z 1017,2 10
20.08.2019 05:00:00 12,1 11,3 8 4 ZZO 1016,8 10
20.08.2019 04:00:00 12,8 12,0 9 5 ZZO 1016,5 10
20.08.2019 03:00:00 14,9 13,1 13 7 WZW 1016,1 10
20.08.2019 02:00:00 14,7 13,1 11 6 ZW 1015,7 10
20.08.2019 01:00:00 15,2 12,5 13 7 ZW 1015,4 10
20.08.2019 00:00:00 13,1 11,8 8 4 ZZW 1015,2 10
19.08.2019 23:00:00 13,7 12,3 8 4 ZZW 1014,9 27
19.08.2019 22:00:00 14,2 12,2 11 6 ZZW 1014,5 10
19.08.2019 21:00:00 16,4 12,7 15 8 ZW 1014,2 10
19.08.2019 20:00:00 16,8 13,5 13 7 ZW 1013,7 10
19.08.2019 19:00:00 17,0 12,5 13 7 ZW 1013,6 10
19.08.2019 18:00:00 16,8 13,5 8 4 ZZW 1013,2 10
19.08.2019 17:00:00 15,6 13,1 18 10 WZW 1012,8 10
19.08.2019 16:00:00 19,1 13,3 24 13 W 1012,0 10
19.08.2019 15:00:00 20,2 12,9 21 11 WZW 1011,3 10
19.08.2019 14:00:00 19,6 12,1 22 12 WZW 1010,7 10
19.08.2019 13:00:00 20,6 12,0 22 12 WZW 1010,1 10
19.08.2019 12:00:00 18,2 12,9 21 11 WZW 1009,9 10
19.08.2019 11:00:00 18,0 13,5 18 10 WZW 1009,8 10
19.08.2019 10:00:00 17,5 14,6 16 9 ZW 1009,6 10
19.08.2019 09:00:00 15,8 14,2 15 8 ZZW 1009,4 10
19.08.2019 08:00:00 15,4 14,1 11 6 ZZW 1009,2 10
19.08.2019 07:00:00 14,2 13,6 8 4 ZZW 1008,7 8
19.08.2019 06:00:00 13,9 13,1 11 6 ZW 1007,8 10
19.08.2019 05:00:00 15,6 14,0 13 7 WZW 1007,6 10
19.08.2019 04:00:00 15,5 13,7 16 9 W 1006,6 10
19.08.2019 03:00:00 16,0 12,7 18 10 W 1006,7 10
19.08.2019 02:00:00 16,1 12,8 21 11 W 1006,1 10
19.08.2019 01:00:00 15,4 14,4 15 8 WZW 1005,7 10
19.08.2019 00:00:00 15,0 14,0 11 6 WZW 1005,1 10
18.08.2019 23:00:00 15,4 13,8 13 7 W 1004,6 10
18.08.2019 22:00:00 15,2 14,2 18 10 NW 1004,1 10
18.08.2019 21:00:00 14,8 14,0 16 9 NW 1003,7 5
18.08.2019 20:00:00 15,1 14,5 13 7 ZZW 1003,2 2,1
18.08.2019 19:00:00 15,9 14,9 15 8 ZZW 1003,2 8
18.08.2019 18:00:00 17,3 15,6 15 8 Z 1003,3 10
18.08.2019 17:00:00 17,8 15,8 5 3 ZW 1003,7 10
18.08.2019 16:00:00 18,5 15,4 5 3 ZZW 1003,8 10
18.08.2019 15:00:00 19,3 14,3 9 5 Z 1004,4 10
18.08.2019 14:00:00 18,7 14,4 11 6 Z 1004,5 10
18.08.2019 13:00:00 18,7 14,4 5 3 Z 1004,5 10
18.08.2019 12:00:00 17,9 14,0 9 5 WZW 1005,1 10
18.08.2019 11:00:00 17,5 14,8 8 4 W 1005,0 10
18.08.2019 10:00:00 17,6 15,0 11 6 W 1005,0 10
18.08.2019 09:00:00 17,2 16,1 11 6 W 1004,8 10
18.08.2019 08:00:00 17,0 16,0 4 2 - 1004,7 6
18.08.2019 07:00:00 16,1 15,5 4 2 ZO 1004,5 5
18.08.2019 06:00:00 16,0 15,5 4 2 O 1005,0 5
18.08.2019 05:00:00 16,3 15,3 5 3 W 1004,9 9
18.08.2019 04:00:00 16,6 16,0 5 3 Z 1005,3 3,4
18.08.2019 03:00:00 16,8 15,8 11 6 ZZW 1006,1 8
18.08.2019 02:00:00 16,6 15,6 11 6 Z 1005,8 7
18.08.2019 01:00:00 16,5 15,5 11 6 ZZW 1006,1 7
18.08.2019 00:00:00 16,2 15,4 11 6 ZZW 1006,0 10

tt = temperatuur
td = dauwpunt
ff = windsnelheid
dd = windrichting
ppp = luchtdruk
vv = zicht

Weerstations in de omgeving